Location: The D'Auria's Ocala Star Observatory
(29.0276°N, 82.1742°W)
Time: 03:34:24
(UTC-04:00)

Okean 3 Rocket - Visible Passes

Search period start: 20 September 2017 00:00
Search period end: 30 September 2017 00:00
Orbit: 616 x 644 km, 82.5° (Epoch: 19 September)

Date Brightness Start Highest point End Pass type
(mag) Time Alt. Az. Time Alt. Az. Time Alt. Az.
25 Sep 5.8 21:07:25 10° NNE 21:08:04 14° NNE 21:08:04 14° NNE visible
26 Sep 5.7 21:27:58 10° N 21:29:16 19° N 21:29:16 19° N visible
27 Sep 5.9 21:49:05 10° NNW 21:50:33 19° NNW 21:50:33 19° NNW visible
28 Sep 5.0 20:32:20 10° NNE 20:34:30 21° NE 20:34:30 21° NE visible
28 Sep 6.5 22:10:57 10° NW 22:11:56 14° WNW 22:11:56 14° WNW visible
29 Sep 4.0 20:52:37 10° N 20:56:01 47° NNE 20:56:01 47° NNE visible
